Back to catalog

STARLINK-31737

AliveCommunicationsVLEO
NORAD 59537·PAYLOAD·🇺🇸 United States

Launched Apr 18, 2024 from Cape Canaveral Space Force Station

Loading…

Next Passes (next 24 hours)

TLE

FreshSource: CelesTrak SupGP

Epoch: Sep 14, 2026, 20:39 UTC

1 59537C 24074D   26257.86090278  .00017326  00000+0  62746-3 0  2571
2 59537  43.0032 355.1154 0001459 277.5126 183.4281 15.27574228    17

Track STARLINK-31737 in real time with AllMySat

Download on the App Store